Regional Weather Roundup
Issued by NWS Little Rock, AR

Home | Current Version | Previous Version | Graphics & Text | Print | Product List | Glossary On
Versions: 1 2 3 4 5 6 7 8 9 10 11 12 13 14 15 16 17 18 19 20 21 22 23 24 25 26 27
000
ASUS44 KLZK 020305
RWRLZK

WEATHER ROUNDUP FOR ARKANSAS
NATIONAL WEATHER SERVICE LITTLE ROCK AR
1000 PM CDT SUN MAY 01 2016

NOTE: "FAIR" INDICATES FEW OR NO CLOUDS BELOW 12,000 FEET WITH NO
SIGNIFICANT WEATHER AND/OR OBSTRUCTIONS TO VISIBILITY.

ARZ001-003-010-029-020400-
NORTHWEST ARKANSAS

CITY           SKY/WX    TMP DP  RH WIND       PRES   REMARKS
FAYETTEVILLE   CLEAR     53  47  79 N6        30.06R
FORT SMITH     CLEAR     62  45  53 NW9       30.04R
HARRISON       CLEAR     55  46  71 NW7       30.05R
BENTONVILLE    PTCLDY    55  45  67 N3        30.08R
ROGERS         PTCLDY    54  46  74 N5        30.08R
SILOAM SPGS    MOCLDY    54  43  66 N5        30.09R
HIGHFILL       PTCLDY    54  47  77 N7        30.07R
$$

ARZ004-005-016-020400-
NORTH CENTRAL ARKANSAS

CITY           SKY/WX    TMP DP  RH WIND       PRES   REMARKS
BATESVILLE     PTCLDY    64  55  72 W5        29.99R
FLIPPIN        CLEAR    N/A N/A N/A NW8       30.00R
MTN HOME       CLEAR     59  47  64 NW6       30.02R
$$

ARZ040-041-020400-
WEST CENTRAL ARKANSAS

CITY           SKY/WX    TMP DP  RH WIND       PRES   REMARKS
MENA           CLEAR     59  52  77 CALM      30.03R
MOUNT IDA      CLEAR     61  54  77 CALM      29.99R
$$

ARZ009-017-025-026-028-020400-
NORTHEAST ARKANSAS

CITY           SKY/WX    TMP DP  RH WIND       PRES   REMARKS
CORNING          N/A     66  59  77 W6        29.97R
JONESBORO      CLEAR     69  54  58 N3        29.96R
NEWPORT        CLEAR     68  62  80 N5        29.98R
WALNUT RIDGE   CLEAR     66  52  59 NW6       29.97R
BLYTHEVILLE    CLEAR     70  63  78 W7        29.96R
$$

ARZ022-023-033-042-044-020400-
CENTRAL ARKANSAS

CITY           SKY/WX    TMP DP  RH WIND       PRES   REMARKS
LITTLE ROCK    CLEAR     69  54  58 NW7       29.97R
N LITTLE ROCK    N/A     67  55  65 N5        29.96R
JACKSONVILLE   CLEAR     64  58  80 CALM      29.97R
SEARCY         CLEAR     68  59  73 N5        29.98R
HOT SPRINGS    CLEAR     69  50  50 VRB3      29.98R
RUSSELLVILLE   CLEAR     62  54  74 CALM      29.97R
$$

ARZ036-020400-
EAST ARKANSAS

CITY           SKY/WX    TMP DP  RH WIND       PRES   REMARKS
WEST MEMPHIS   CLEAR     69  68  96 CALM      29.95R
$$

ARZ050-053-066-070-073-020400-
SOUTHWEST ARKANSAS

CITY           SKY/WX    TMP DP  RH WIND       PRES   REMARKS
ARKADELPHIA    MOCLDY    71  65  81 N3        29.97R
CAMDEN         PTCLDY    72  64  78 CALM      29.95R
TEXARKANA      CLEAR     68  61  78 CALM      29.96R
EL DORADO      MOCLDY    71  67  87 CALM      29.95R
DE QUEEN       CLEAR     66  51  58 VRB5      29.97R
$$

ARZ056-057-069-020400-
SOUTHEAST ARKANSAS

CITY           SKY/WX    TMP DP  RH WIND       PRES   REMARKS
PINE BLUFF     CLEAR     71  62  73 N3        29.96R
STUTTGART      PTCLDY    72  64  78 NW7       29.97R
MONTICELLO     LGT RAIN  71  68  90 W7        29.95R

$$






USA.gov is the U.S. government's official web portal to all federal, state and local government web resources and services.